This is the latest recevied weather packets stored in our database for station/object KI6SYE. If no packets are shown the sender has not sent any weather packets the latest 10 day(s).
| Time | Temp. | Humidity | Pressure | Rain* | Wind** | Luminosity | Snow |
|---|---|---|---|---|---|---|---|
| 1777689375 | 16.11° C | 89% | 1012.4 hPa | 0 mm | - | 3 W/m² | - |
| 1777689072 | 16.11° C | 88% | 1012.2 hPa | 0 mm | - | 5 W/m² | - |
| 1777688769 | 16.11° C | 88% | 1012.4 hPa | 0 mm | - | 8 W/m² | - |
| 1777688466 | 16.11° C | 88% | 1012.4 hPa | 0 mm | - | 13 W/m² | - |
| 1777688164 | 16.11° C | 88% | 1012.3 hPa | 0 mm | - | 16 W/m² | - |
| 1777687860 | 16.11° C | 88% | 1012.3 hPa | 0 mm | - | 19 W/m² | - |
| 1777687558 | 16.11° C | 88% | 1012.3 hPa | 0 mm | - | 22 W/m² | - |
| 1777687254 | 16.11° C | 88% | 1011.9 hPa | 0 mm | - | 27 W/m² | - |
| 1777686953 | 16.67° C | 87% | 1012.2 hPa | 0 mm | - | 34 W/m² | - |
| 1777686649 | 16.67° C | 86% | 1011.8 hPa | 0 mm | - | 50 W/m² | - |
| 1777686346 | 17.22° C | 85% | 1011.9 hPa | 0 mm | - | 52 W/m² | - |
| 1777686043 | 17.22° C | 85% | 1012 hPa | 0 mm | - | 65 W/m² | - |
| 1777685738 | 17.22° C | 85% | 1012 hPa | 0 mm | - | 58 W/m² | - |
| 1777685435 | 17.22° C | 85% | 1011.9 hPa | 0 mm | - | 54 W/m² | - |
| 1777685132 | 17.22° C | 84% | 1012 hPa | 0 mm | - | 61 W/m² | - |
| 1777684830 | 17.78° C | 83% | 1012.1 hPa | 0 mm | - | 63 W/m² | - |
| 1777684527 | 17.78° C | 83% | 1012.2 hPa | 0 mm | - | 64 W/m² | - |
| 1777684223 | 17.78° C | 83% | 1011.9 hPa | 0 mm | - | 73 W/m² | - |
| 1777683920 | 17.22° C | 83% | 1011.7 hPa | 0 mm | - | 71 W/m² | - |
| 1777683616 | 17.22° C | 83% | 1011.8 hPa | 0 mm | - | 75 W/m² | - |
| 1777683315 | 17.78° C | 82% | 1011.9 hPa | 0 mm | - | 77 W/m² | - |
| 1777683012 | 17.78° C | 81% | 1012 hPa | 0 mm | - | 85 W/m² | - |
| 1777682707 | 17.78° C | 82% | 1012 hPa | 0 mm | - | 129 W/m² | - |
| 1777682404 | 17.78° C | 82% | 1012 hPa | 0 mm | - | 183 W/m² | - |
| 1777682102 | 17.78° C | 82% | 1011.9 hPa | 0 mm | - | 202 W/m² | - |
* Rain latest hour (hover to see other rain measurements)
** Current wind speed in m/s (hover to see current wind gust speed)